Location: Seattle
(47.6064°N, 122.3308°W)
Time: 13:30:34
(UTC-08:00)

S-56A Canister/Altair - Pass Details

Date: 12 October 2022
Orbit: 638 x 2494 km, 38.9° (Epoch: 02 December)

Event Time Altitude Azimuth Distance (km) Brightness Sun altitude
Exits shadow 05:40:06 19° 230° (SW) 2,922 10.0 -18.3°
Maximum altitude 05:40:39 19° 225° (SW) 2,872 10.0 -18.2°
Drops below altitude 10° 05:45:48 10° 183° (S) 3,081 10.5 -17.3°
Sets 05:49:03 0° 165° (SSE) 3,758 11.2 -16.8°
